Regional Weather Roundup
Issued by NWS Northern Indiana

Home | Current Version | Previous Version | Graphics & Text | Print | Product List | Glossary On
Versions: 1 2 3 4 5 6 7 8 9 10 11 12 13 14 15 16 17 18 19 20 21 22 23 24 25 26 27 28 29 30 31 32 33 34 35 36 37 38 39 40 41 42 43 44 45 46 47 48 49 50
000
ASUS43 KIWX 041000
RWRIWX

KIWX WEATHER ROUNDUP
NATIONAL WEATHER SERVICE NORTHERN INDIANA
600 AM EDT SAT JUL 04 2015

NOTE: "FAIR" INDICATES FEW OR NO CLOUDS BELOW 12,000 FEET WITH NO
SIGNIFICANT WEATHER AND/OR OBSTRUCTIONS TO VISIBILITY.

* THESE STATIONS ARE NOT UNDER NWS QUALITY CONTROL. THEY ALSO MAY NOT
  REPORT WEATHER SUCH AS PRECIPITATION OR FOG.

INZ001>027-041100-
NORTHERN INDIANA

CITY           SKY/WX    TMP DP  RH WIND       PRES   REMARKS
GARY*          CLEAR    N/A N/A N/A CALM      29.97R
KNOX*            N/A     52  52 100 CALM      29.96R VSB 1/2
SOUTH BEND     CLEAR     55  52  89 CALM      29.97R
GOSHEN         CLEAR     54  52  93 CALM      29.95S FOG
MONTICELLO*    CLEAR     56  56 100 CALM      29.95R FOG
WARSAW*        FOG       54  54 100 CALM      29.96R VSB 1/4
ANGOLA*          N/A     54  39  58 CALM      29.96R
FORT WAYNE     CLEAR     57  55  93 CALM      29.96R
PERU/GRISSOM   CLEAR     58  57  97 CALM      29.95R FOG

$$
INZ028>050-041100-
CENTRAL INDIANA

CITY           SKY/WX    TMP DP  RH WIND       PRES   REMARKS
LAFAYETTE      CLEAR     56  55  97 CALM      29.95S FOG
KOKOMO*        MOCLDY    57  54  88 CALM      29.96R VSB 3/4
MUNCIE*        CLEAR     59  58  96 CALM      29.95S FOG
INDIANAPOLIS   PTCLDY    63  60  90 CALM      29.93S

$$
MIZ043>046-050>051-056>058-064>065-071>073-077>080-041100-
SOUTHWEST LOWER MICHIGAN

CITY           SKY/WX    TMP DP  RH WIND       PRES   REMARKS
BATTLE CREEK   CLEAR     55  52  89 CALM      29.96S
BENTON HARBOR  CLEAR     50  48  93 CALM      29.96R FOG
COLDWATER*     CLEAR     53  53  99 CALM      29.96R FOG
HILLSDALE*       N/A     54  54 100 CALM      29.96S FOG
HOLLAND        CLEAR     53  50  89 W3        29.97R
GRAND RAPIDS   CLEAR     57  51  80 CALM      29.96R
KALAMAZOO      CLEAR     55  52  89 CALM      29.97R
STURGIS*       CLEAR     54  54 100 CALM      29.95S FOG
THREE RIVERS*  FAIR      55  53  94 CALM      29.96S FOG

$$
OHZ001>008-015>018-024>025-041100-
NORTHWEST OHIO

CITY           SKY/WX    TMP DP  RH WIND       PRES   REMARKS
DEFIANCE       CLEAR     56  53  90 CALM      29.95R
FINDLAY        CLEAR     53  51  93 CALM      29.93R
TOLEDO EXPRESS CLEAR     55  51  86 CALM      29.94R
TOLEDO METCALF CLEAR     56  52  86 CALM      29.95R
LIMA           CLEAR     52  50  93 CALM      29.95R

$$
AND FOR LAKE MICHIGAN COASTAL AND OPEN LAKE BUOY OBSERVATIONS

STATION/POSITION TEMP    WIND        PRES    VSBY  WAVE
                 AIR SEA DIR/SP/G                  HT/PER
                 (F)     (DEG/KT/KT) (MB)    (MI)  (FT/S)
CALUMET HARBOR    62     230/  2/  3   N/A
MICHIGAN CITY     59     170/  3/  3   N/A
BURNS HARBOR      62     220/  3/  4 1014.9S
SAINT JOSEPH      60     160/  2/  3   N/A
4 MI NW BRIDGMAN  60 62                N/A           0
MICHIGAN CITY     62 63  230/  2/  4   N/A           0

$$
&&


USA.gov is the U.S. government's official web portal to all federal, state and local government web resources and services.